View from above orbital plane
|
View from above satellite
|
Ground track
|
The orbit data is extracted from the following two-line orbital elements,
1 00116U 61015A 21108.59303437 -.00000041 00000-0 27488-4 0 9996
2 00116 66.8098 182.2512 0072816 160.0284 200.3672 13.91787951 34270
Epoch (UTC): | 18 April 2021 14:13:58 |
Eccentricity: | 0.0072816 |
inclination: | 66.8098° |
perigee height: | 869 km |
apogee height: | 975 km |
right ascension of ascending node: | 182.2512° |
argument of perigee: | 160.0284° |
revolutions per day: | 13.91787951 |
mean anomaly at epoch: | 200.3672° |
orbit number at epoch: | 3427 |
The dashed part of the orbit path shows where the satellite is in the earth's shadow,
|
|